Home   Weather   Konstanz   Past weeks

Flag for Germany Past Weather in Konstanz, Baden-Württemberg, Germany — Yesterday and Last 2 Weeks

48 °F

Light rain. Overcast.

Feels Like: 46 °F
Forecast: 37 / 59 °F
Wind: 5 mph from West

Location: Friedrichshafen Airport

Current Time: Oct 23, 2016 at 2:09:53 PM

Latest Report: Oct 23, 2016 at 1:50 PM

Visibility: N/A

Pressure: 29.89 "Hg

Humidity: 82%

Dew Point: 43 °F

Location of KonstanzLocation

Past Weather in Konstanz — Graph


Konstanz Temperature Yesterday

Maximum temperature yesterday: 52 °F (at 2:20 PM)
Minimum temperature yesterday: 36 °F (at 7:51 AM)
Average temperature yesterday: 43 °F

High & Low Weather Summary for the Past Weeks

High61 °F (Oct 15, 4:50 PM)100% (Oct 9, 5:20 AM)30.27 "Hg (Oct 9, 5:20 AM)
Low34 °F (Oct 13, 5:50 AM)50% (Oct 12, 5:20 PM)29.65 "Hg (Oct 14, 4:20 PM)
Average47 °F86%30.05 "Hg
* Reported Oct 8 12:20 PM — Oct 23 12:50 PM, Konstanz, Weather by CustomWeather, © 2016

Note: Actual official high and low records may vary slightly from our data, if they occured in-between our weather recording intervals... More about our weather records


Konstanz Weather History for the Previous 24 Hours

Scroll right to see more
Time TempWeatherWind HumidityBarometerVisibility
12:50 PM
Sun, Oct 23
48 °FSunny.2 mph82%29.86 "Hg10 mi
12:20 PM46 °FSunny.3 mph82%29.86 "Hg10 mi
11:50 AM46 °FMostly cloudy.3 mph82%29.86 "HgN/A
11:20 AM45 °FSunny.3 mph87%29.89 "Hg10 mi
10:50 AM43 °FSunny.2 mph87%29.89 "Hg10 mi
10:20 AM41 °FDrizzle. Partly sunny.5 mph93%29.89 "HgN/A
9:50 AM39 °FSunny.2 mph93%29.89 "Hg10 mi
9:20 AM39 °FSunny.3 mph93%29.89 "Hg10 mi
8:50 AM37 °FSunny.2 mph93%29.92 "Hg10 mi
8:20 AM37 °FSunny.5 mph93%29.89 "Hg10 mi
7:50 AM37 °FClear.5 mph93%29.89 "Hg10 mi
7:20 AM37 °FPassing clouds.5 mph93%29.89 "HgN/A
6:50 AM36 °FClear.6 mph100%29.89 "Hg10 mi
6:20 AM37 °FClear.1 mph93%29.92 "Hg10 mi
5:50 AM36 °FClear.3 mph100%29.89 "Hg10 mi
5:20 AM36 °FClear.3 mph100%29.89 "Hg5 mi
4:50 AM36 °FMostly cloudy.5 mph100%29.89 "Hg5 mi
4:20 AM36 °FOvercast.5 mph100%29.92 "Hg5 mi
3:50 AM36 °FOvercast.5 mph100%29.92 "Hg5 mi
3:20 AM36 °FClear.6 mph93%29.92 "Hg5 mi
2:50 AM36 °FClear.5 mph93%29.95 "Hg5 mi
2:20 AM34 °FClear.5 mph100%29.95 "Hg5 mi
1:50 AM34 °FChilly.5 mph93%29.95 "Hg5 mi
1:20 AM36 °FChilly.6 mph100%29.95 "Hg6 mi
12:50 AM34 °FChilly.3 mph100%29.95 "Hg6 mi
12:20 AM34 °FFog.5 mph100%29.95 "Hg3 mi
11:50 PM
Sat, Oct 22
36 °FChilly.3 mph93%29.95 "Hg5 mi
11:20 PM36 °FChilly.3 mph100%29.98 "HgN/A
10:50 PM37 °FChilly.6 mph93%29.98 "HgN/A
10:20 PM39 °FChilly.7 mph93%29.98 "HgN/A
9:50 PM36 °FClear.2 mph100%29.98 "Hg10 mi
9:20 PM36 °FClear.2 mph100%29.98 "Hg10 mi
8:50 PM37 °FClear.2 mph100%29.98 "Hg10 mi
8:20 PM37 °FClear.2 mph100%29.98 "Hg10 mi
7:50 PM39 °FClear.3 mph100%29.98 "Hg10 mi
7:20 PM41 °FClear.2 mph93%29.95 "Hg10 mi
6:50 PM43 °FClear.No wind87%29.95 "Hg10 mi
6:20 PM45 °FClear.3 mph81%29.95 "Hg10 mi
5:50 PM48 °FSunny.5 mph71%29.95 "Hg10 mi
5:20 PM52 °FSunny.5 mph58%29.95 "Hg10 mi
4:50 PM52 °FSunny.6 mph58%29.95 "Hg10 mi
4:20 PM52 °FPassing clouds.5 mph58%29.95 "HgN/A
3:50 PM52 °FPassing clouds.5 mph54%29.95 "HgN/A
3:20 PM52 °FPassing clouds.5 mph58%29.95 "HgN/A
2:50 PM50 °FPassing clouds.5 mph67%29.95 "HgN/A
2:20 PM52 °FPassing clouds.2 mph67%29.95 "HgN/A
Weather by CustomWeather, © 2016

See weather overviewHow to use our weather pages